HLF8818 ZSPD-VHHH

Flight info

Callsign HLF8818
Flight time 2h 4m
Altitude 33100
Route HSN W13 BEGMO M503 TOLAK/N0510F292 M503 LELIM V591 ABBEY
Aircraft B77L/H-SDE1E2E3FGHIJ2J3J4J5M1RWXY/LB1D1

Departure

Time 2026-04-30 12:37
Airport Shanghai Pudong International Airport (ZSPD)

Arrival

Time 2026-04-30 14:41
Airport Hong Kong International Airport (VHHH)
Time Latitude Longitude Altitude Speed Heading
2026-04-30 12:09 31.12553 121.78998 27 ft 0 kts 252°
2026-04-30 12:24 31.12556 121.79008 27 ft 3 kts 252°
2026-04-30 12:24 31.12564 121.79037 26 ft 3 kts 252°
2026-04-30 12:24 31.12571 121.79060 24 ft 3 kts 252°
2026-04-30 12:25 31.12575 121.79075 25 ft 2 kts 252°
2026-04-30 12:25 31.12579 121.79092 25 ft 3 kts 263°
2026-04-30 12:25 31.12578 121.79110 25 ft 3 kts 312°
2026-04-30 12:25 31.12563 121.79121 25 ft 3 kts 345°
2026-04-30 12:26 31.12550 121.79125 25 ft 1 kts 342°
2026-04-30 12:29 31.12554 121.79123 25 ft 3 kts 342°
2026-04-30 12:29 31.12595 121.79109 26 ft 10 kts 342°
2026-04-30 12:29 31.12682 121.79076 26 ft 17 kts 341°
2026-04-30 12:30 31.12814 121.79024 27 ft 23 kts 344°
2026-04-30 12:30 31.12966 121.78969 27 ft 23 kts 342°
2026-04-30 12:30 31.13118 121.78911 27 ft 23 kts 342°
2026-04-30 12:30 31.13269 121.78854 27 ft 23 kts 342°
2026-04-30 12:31 31.13420 121.78797 27 ft 23 kts 342°
2026-04-30 12:31 31.13572 121.78740 27 ft 23 kts 342°
2026-04-30 12:31 31.13723 121.78683 27 ft 23 kts 342°
2026-04-30 12:31 31.13875 121.78626 27 ft 23 kts 342°
2026-04-30 12:32 31.14026 121.78569 28 ft 23 kts 342°
2026-04-30 12:32 31.14162 121.78518 28 ft 14 kts 342°
2026-04-30 12:32 31.14240 121.78548 27 ft 14 kts 73°
2026-04-30 12:32 31.14321 121.78565 26 ft 14 kts 343°
2026-04-30 12:33 31.14412 121.78530 27 ft 14 kts 341°
2026-04-30 12:33 31.14503 121.78497 27 ft 14 kts 342°
2026-04-30 12:33 31.14593 121.78462 27 ft 14 kts 342°
2026-04-30 12:33 31.14691 121.78425 27 ft 17 kts 342°
2026-04-30 12:34 31.14817 121.78377 27 ft 22 kts 342°
2026-04-30 12:34 31.14972 121.78319 26 ft 24 kts 342°
2026-04-30 12:34 31.15131 121.78259 27 ft 24 kts 342°
2026-04-30 12:34 31.15287 121.78200 28 ft 21 kts 342°
2026-04-30 12:35 31.15388 121.78162 28 ft 9 kts 343°
2026-04-30 12:35 31.15429 121.78212 28 ft 9 kts 71°
2026-04-30 12:35 31.15449 121.78282 29 ft 9 kts 71°
2026-04-30 12:35 31.15450 121.78347 29 ft 8 kts 131°
2026-04-30 12:36 31.15432 121.78356 29 ft 0 kts 163°
2026-04-30 12:36 31.15393 121.78370 28 ft 27 kts 162°
2026-04-30 12:36 31.14971 121.78528 31 ft 98 kts 162°
2026-04-30 12:36 31.14127 121.78846 28 ft 154 kts 162°
2026-04-30 12:37 31.13034 121.79266 317 ft 168 kts 161°
2026-04-30 12:37 31.11895 121.79704 761 ft 174 kts 162°
2026-04-30 12:37 31.10721 121.80147 1242 ft 181 kts 163°
2026-04-30 12:37 31.09507 121.80607 1738 ft 187 kts 163°
2026-04-30 12:38 31.08191 121.81101 1999 ft 209 kts 163°
2026-04-30 12:38 31.06721 121.81652 2197 ft 236 kts 163°
2026-04-30 12:38 31.05080 121.82265 2520 ft 256 kts 164°
2026-04-30 12:38 31.03354 121.82910 3187 ft 265 kts 164°
2026-04-30 12:39 31.01579 121.83572 3903 ft 271 kts 163°
2026-04-30 12:39 30.99759 121.84251 4615 ft 278 kts 162°
2026-04-30 12:39 30.97926 121.85037 5319 ft 284 kts 158°
2026-04-30 12:39 30.96101 121.85913 6010 ft 290 kts 158°
2026-04-30 12:40 30.94210 121.86819 6667 ft 297 kts 159°
2026-04-30 12:40 30.92272 121.87713 7343 ft 301 kts 163°
2026-04-30 12:40 30.90271 121.88460 8053 ft 304 kts 166°
2026-04-30 12:40 30.88235 121.89178 8753 ft 307 kts 166°
2026-04-30 12:41 30.86177 121.89916 9458 ft 311 kts 167°
2026-04-30 12:41 30.84109 121.90711 10104 ft 315 kts 160°
2026-04-30 12:41 30.82267 121.92220 10388 ft 339 kts 131°
2026-04-30 12:41 30.81129 121.94696 10559 ft 360 kts 101°
2026-04-30 12:42 30.81061 121.97631 10744 ft 372 kts 73°
2026-04-30 12:42 30.81855 122.00535 10912 ft 385 kts 65°
2026-04-30 12:42 30.82806 122.03515 11376 ft 399 kts 65°
2026-04-30 12:42 30.83756 122.06597 12026 ft 409 kts 66°
2026-04-30 12:43 30.84684 122.09756 12820 ft 416 kts 67°
2026-04-30 12:43 30.85594 122.12980 13631 ft 423 kts 67°
2026-04-30 12:43 30.86504 122.16262 14362 ft 430 kts 67°
2026-04-30 12:43 30.87352 122.19618 14912 ft 438 kts 75°
2026-04-30 12:44 30.87391 122.23224 15426 ft 457 kts 99°
2026-04-30 12:44 30.86352 122.26692 16083 ft 464 kts 120°
2026-04-30 12:44 30.84394 122.29665 16699 ft 464 kts 141°
2026-04-30 12:44 30.81773 122.31802 17324 ft 457 kts 162°
2026-04-30 12:45 30.78812 122.32990 17883 ft 450 kts 172°
2026-04-30 12:45 30.75765 122.34006 18424 ft 459 kts 172°
2026-04-30 12:45 30.72688 122.35061 19111 ft 460 kts 172°
2026-04-30 12:45 30.69634 122.36148 20021 ft 457 kts 172°
2026-04-30 12:46 30.66599 122.37251 20770 ft 458 kts 172°
2026-04-30 12:46 30.63538 122.38369 21376 ft 463 kts 172°
2026-04-30 12:46 30.60452 122.39492 21957 ft 465 kts 173°
2026-04-30 12:46 30.57324 122.40243 22422 ft 449 kts 189°
2026-04-30 12:47 30.54272 122.40089 22927 ft 438 kts 196°
2026-04-30 12:47 30.51254 122.39808 23460 ft 443 kts 195°
2026-04-30 12:47 30.48173 122.39551 24047 ft 445 kts 195°
2026-04-30 12:47 30.45070 122.39325 24627 ft 447 kts 195°
2026-04-30 12:48 30.41961 122.39123 25181 ft 449 kts 195°
2026-04-30 12:48 30.38835 122.38933 25705 ft 451 kts 195°
2026-04-30 12:48 30.35690 122.38748 26208 ft 454 kts 195°
2026-04-30 12:48 30.32523 122.38565 26673 ft 456 kts 195°
2026-04-30 12:49 30.29342 122.38383 27173 ft 458 kts 195°
2026-04-30 12:49 30.26134 122.38198 27663 ft 461 kts 196°
2026-04-30 12:49 30.22923 122.38012 28144 ft 463 kts 196°
2026-04-30 12:49 30.19694 122.37825 28592 ft 466 kts 196°
2026-04-30 12:50 30.16444 122.37637 29036 ft 468 kts 196°
2026-04-30 12:50 30.13217 122.37450 29442 ft 471 kts 196°
2026-04-30 12:50 30.09939 122.37261 29755 ft 473 kts 196°
2026-04-30 12:50 30.06651 122.37072 30226 ft 473 kts 196°
2026-04-30 12:51 30.03362 122.36887 30690 ft 471 kts 196°
2026-04-30 12:51 30.00099 122.36702 31225 ft 468 kts 197°
2026-04-30 12:51 29.96856 122.36516 31716 ft 465 kts 197°
2026-04-30 12:51 29.93620 122.36349 32172 ft 467 kts 194°
2026-04-30 12:52 29.90312 122.36646 32561 ft 488 kts 184°
2026-04-30 12:52 29.86957 122.37419 32965 ft 493 kts 182°
2026-04-30 12:52 29.83597 122.38302 33308 ft 494 kts 181°
2026-04-30 12:52 29.80254 122.39195 33738 ft 492 kts 182°
2026-04-30 12:53 29.76920 122.40058 34157 ft 489 kts 182°
2026-04-30 12:53 29.73588 122.40881 34235 ft 491 kts 183°
2026-04-30 12:53 29.66938 122.42444 34233 ft 489 kts 183°
2026-04-30 12:54 29.60305 122.43981 34236 ft 485 kts 184°
2026-04-30 12:54 29.53694 122.45507 34243 ft 484 kts 184°
2026-04-30 12:55 29.47094 122.47034 34242 ft 484 kts 184°
2026-04-30 12:55 29.40480 122.48566 34243 ft 485 kts 183°
2026-04-30 12:56 29.33865 122.50096 34158 ft 485 kts 183°
2026-04-30 12:56 29.27249 122.51627 34237 ft 485 kts 183°
2026-04-30 12:57 29.23956 122.52310 34237 ft 473 kts 189°
2026-04-30 12:57 29.20766 122.52309 34254 ft 447 kts 201°
2026-04-30 12:57 29.17771 122.51631 34262 ft 433 kts 209°
2026-04-30 12:57 29.14979 122.50465 34251 ft 420 kts 218°
2026-04-30 12:58 29.09832 122.47339 34193 ft 421 kts 219°
2026-04-30 12:58 29.04618 122.44229 34240 ft 424 kts 218°
2026-04-30 12:59 28.99375 122.41137 34251 ft 427 kts 218°
2026-04-30 12:59 28.94089 122.38031 34249 ft 427 kts 218°
2026-04-30 13:00 28.88802 122.34928 34186 ft 426 kts 217°
2026-04-30 13:00 28.83536 122.31841 34243 ft 425 kts 218°
2026-04-30 13:01 28.78268 122.28755 34250 ft 426 kts 218°
2026-04-30 13:01 28.73024 122.25685 34249 ft 427 kts 218°
2026-04-30 13:02 28.67733 122.22591 34186 ft 427 kts 217°
2026-04-30 13:02 28.62439 122.19499 34239 ft 428 kts 217°
2026-04-30 13:03 28.57130 122.16402 34253 ft 430 kts 217°
2026-04-30 13:03 28.51794 122.13293 34253 ft 431 kts 217°
2026-04-30 13:04 28.46442 122.10179 34246 ft 432 kts 217°
2026-04-30 13:04 28.41088 122.07068 34252 ft 432 kts 217°
2026-04-30 13:05 28.35717 122.03949 34260 ft 434 kts 217°
2026-04-30 13:06 28.27615 121.99252 34239 ft 436 kts 217°
2026-04-30 13:06 28.22243 121.96140 34225 ft 436 kts 216°
2026-04-30 13:07 28.16819 121.93006 34235 ft 437 kts 216°
2026-04-30 13:07 28.11392 121.89871 34247 ft 437 kts 216°
2026-04-30 13:08 28.05972 121.86743 34246 ft 437 kts 216°
2026-04-30 13:08 28.00537 121.83611 34221 ft 437 kts 215°
2026-04-30 13:09 27.96079 121.80943 34235 ft 436 kts 217°
2026-04-30 13:09 27.90759 121.77618 34249 ft 437 kts 217°
2026-04-30 13:10 27.85458 121.74312 34248 ft 438 kts 217°
2026-04-30 13:10 27.80098 121.70996 34214 ft 439 kts 217°
2026-04-30 13:11 27.74722 121.67682 34238 ft 441 kts 217°
2026-04-30 13:11 27.69326 121.64359 34245 ft 443 kts 217°
2026-04-30 13:12 27.63911 121.61027 34249 ft 444 kts 217°
2026-04-30 13:12 27.58483 121.57691 34205 ft 445 kts 216°
2026-04-30 13:13 27.50293 121.52704 34243 ft 447 kts 216°
2026-04-30 13:14 27.42098 121.47731 34245 ft 449 kts 216°
2026-04-30 13:14 27.33839 121.42721 34244 ft 449 kts 216°
2026-04-30 13:15 27.25583 121.37722 34241 ft 449 kts 216°
2026-04-30 13:16 27.20077 121.34388 34243 ft 448 kts 216°
2026-04-30 13:16 27.14591 121.31054 34235 ft 448 kts 216°
2026-04-30 13:17 27.06374 121.26065 34240 ft 448 kts 216°
2026-04-30 13:18 26.98137 121.21074 34249 ft 449 kts 216°
2026-04-30 13:18 26.89904 121.16094 34220 ft 450 kts 216°
2026-04-30 13:19 26.84383 121.12760 34235 ft 451 kts 215°
2026-04-30 13:19 26.78849 121.09420 34245 ft 452 kts 215°
2026-04-30 13:20 26.73305 121.06080 34241 ft 453 kts 215°
2026-04-30 13:20 26.67742 121.02730 34213 ft 454 kts 214°
2026-04-30 13:21 26.62217 120.99405 34226 ft 454 kts 214°
2026-04-30 13:22 26.53867 120.94387 34244 ft 455 kts 215°
2026-04-30 13:22 26.45496 120.89363 34217 ft 455 kts 214°
2026-04-30 13:23 26.37142 120.84358 34240 ft 456 kts 214°
2026-04-30 13:24 26.26841 120.78199 34235 ft 457 kts 214°
2026-04-30 13:25 26.15623 120.71504 34230 ft 458 kts 214°
2026-04-30 13:26 26.01520 120.63109 34233 ft 461 kts 214°
2026-04-30 13:28 25.87336 120.54690 34238 ft 463 kts 213°
2026-04-30 13:28 25.78833 120.49653 34231 ft 464 kts 213°
2026-04-30 13:29 25.67425 120.42908 34228 ft 464 kts 213°
2026-04-30 13:31 25.54151 120.33089 34224 ft 459 kts 222°
2026-04-30 13:32 25.41369 120.22447 34221 ft 461 kts 221°
2026-04-30 13:33 25.31072 120.13923 34221 ft 462 kts 221°
2026-04-30 13:34 25.23338 120.07531 34214 ft 463 kts 221°
2026-04-30 13:35 25.13032 119.99028 34215 ft 464 kts 221°
2026-04-30 13:36 25.02667 119.90491 34200 ft 464 kts 221°
2026-04-30 13:36 24.95859 119.83080 34215 ft 457 kts 233°
2026-04-30 13:37 24.89679 119.75068 34211 ft 457 kts 233°
2026-04-30 13:38 24.83459 119.67084 34191 ft 458 kts 233°
2026-04-30 13:39 24.75162 119.56474 34206 ft 459 kts 232°
2026-04-30 13:40 24.68886 119.48465 34204 ft 461 kts 233°
2026-04-30 13:40 24.64695 119.43122 34201 ft 461 kts 233°
2026-04-30 13:41 24.60517 119.37803 34199 ft 462 kts 232°
2026-04-30 13:41 24.56311 119.32455 34203 ft 462 kts 232°
2026-04-30 13:42 24.52101 119.27106 34200 ft 463 kts 232°
2026-04-30 13:42 24.45774 119.19081 34201 ft 463 kts 233°
2026-04-30 13:43 24.41548 119.13728 34177 ft 464 kts 232°
2026-04-30 13:43 24.37322 119.08380 34192 ft 464 kts 232°
2026-04-30 13:44 24.33092 119.03034 34191 ft 464 kts 232°
2026-04-30 13:44 24.28879 118.97715 34190 ft 465 kts 232°
2026-04-30 13:45 24.22509 118.89683 34184 ft 465 kts 233°
2026-04-30 13:46 24.18257 118.84329 34174 ft 465 kts 232°
2026-04-30 13:46 24.13998 118.78974 34180 ft 465 kts 232°
2026-04-30 13:47 24.09741 118.73626 34179 ft 465 kts 232°
2026-04-30 13:47 24.05482 118.68280 34182 ft 465 kts 232°
2026-04-30 13:48 24.01225 118.62943 34183 ft 466 kts 233°
2026-04-30 13:48 23.96962 118.57605 34180 ft 465 kts 232°
2026-04-30 13:49 23.92704 118.52278 34185 ft 465 kts 232°
2026-04-30 13:49 23.88447 118.46957 34191 ft 465 kts 232°
2026-04-30 13:50 23.84177 118.41644 34183 ft 465 kts 232°
2026-04-30 13:50 23.77758 118.33755 34175 ft 465 kts 232°
2026-04-30 13:51 23.73452 118.28469 34183 ft 465 kts 232°
2026-04-30 13:51 23.69156 118.23194 34184 ft 465 kts 232°
2026-04-30 13:52 23.64860 118.17922 34181 ft 465 kts 232°
2026-04-30 13:52 23.60589 118.12687 34182 ft 465 kts 232°
2026-04-30 13:53 23.56286 118.07417 34178 ft 465 kts 232°
2026-04-30 13:53 23.52708 118.03040 34171 ft 465 kts 232°
2026-04-30 13:54 23.47675 117.96892 34178 ft 465 kts 232°
2026-04-30 13:54 23.43371 117.91638 34172 ft 465 kts 232°
2026-04-30 13:55 23.39794 117.87276 34175 ft 465 kts 232°
2026-04-30 13:55 23.35484 117.82025 34126 ft 466 kts 232°
2026-04-30 13:56 23.31160 117.76764 34083 ft 466 kts 232°
2026-04-30 13:56 23.26136 117.70657 34072 ft 465 kts 232°
2026-04-30 13:57 23.21818 117.65414 34069 ft 465 kts 232°
2026-04-30 13:57 23.17501 117.60178 34068 ft 465 kts 232°
2026-04-30 13:58 23.11750 117.53209 34069 ft 465 kts 232°
2026-04-30 13:59 23.07440 117.47972 34071 ft 465 kts 232°
2026-04-30 13:59 23.03192 117.42683 34069 ft 464 kts 232°
2026-04-30 14:00 22.98937 117.37404 34070 ft 464 kts 232°
2026-04-30 14:00 22.92649 117.29435 34072 ft 461 kts 237°
2026-04-30 14:01 22.88895 117.23799 34075 ft 461 kts 237°
2026-04-30 14:01 22.85154 117.18197 34070 ft 461 kts 237°
2026-04-30 14:02 22.81374 117.12579 34072 ft 461 kts 237°
2026-04-30 14:02 22.77590 117.06966 34070 ft 461 kts 237°
2026-04-30 14:03 22.74024 117.01219 34074 ft 458 kts 243°
2026-04-30 14:03 22.71350 116.94989 34075 ft 455 kts 250°
2026-04-30 14:04 22.69041 116.88604 34074 ft 455 kts 250°
2026-04-30 14:04 22.66730 116.82260 34075 ft 455 kts 250°
2026-04-30 14:05 22.64387 116.75884 34070 ft 455 kts 250°
2026-04-30 14:05 22.62039 116.69520 34062 ft 454 kts 250°
2026-04-30 14:06 22.58518 116.60000 34065 ft 453 kts 250°
2026-04-30 14:07 22.55024 116.50567 34065 ft 451 kts 250°
2026-04-30 14:08 22.51522 116.41133 34063 ft 450 kts 250°
2026-04-30 14:08 22.48026 116.31731 34060 ft 449 kts 250°
2026-04-30 14:09 22.45692 116.25465 34061 ft 449 kts 250°
2026-04-30 14:10 22.42204 116.16121 34045 ft 449 kts 249°
2026-04-30 14:10 22.39865 116.09864 34052 ft 448 kts 249°
2026-04-30 14:11 22.37527 116.03618 34058 ft 448 kts 249°
2026-04-30 14:11 22.35185 115.97369 34057 ft 448 kts 249°
2026-04-30 14:12 22.32843 115.91126 34056 ft 449 kts 249°
2026-04-30 14:12 22.30717 115.84793 34055 ft 448 kts 256°
2026-04-30 14:13 22.29570 115.78169 34061 ft 449 kts 263°
2026-04-30 14:13 22.29318 115.71438 34063 ft 449 kts 268°
2026-04-30 14:14 22.29199 115.64685 34057 ft 450 kts 267°
2026-04-30 14:14 22.29006 115.57972 34055 ft 450 kts 267°
2026-04-30 14:15 22.28806 115.51204 34055 ft 451 kts 267°
2026-04-30 14:15 22.28614 115.44492 33699 ft 440 kts 267°
2026-04-30 14:15 22.28519 115.41203 32947 ft 439 kts 267°
2026-04-30 14:16 22.28422 115.37877 31784 ft 448 kts 268°
2026-04-30 14:16 22.28322 115.34474 30565 ft 459 kts 268°
2026-04-30 14:16 22.28220 115.31006 29509 ft 464 kts 268°
2026-04-30 14:16 22.28114 115.27532 28730 ft 462 kts 268°
2026-04-30 14:17 22.28008 115.24086 28192 ft 455 kts 267°
2026-04-30 14:17 22.27903 115.20700 27665 ft 449 kts 267°
2026-04-30 14:17 22.27798 115.17343 27088 ft 444 kts 267°
2026-04-30 14:17 22.27694 115.14022 26473 ft 441 kts 267°
2026-04-30 14:18 22.27591 115.10766 25869 ft 438 kts 267°
2026-04-30 14:18 22.27487 115.07487 25291 ft 435 kts 267°
2026-04-30 14:18 22.27279 115.00993 24215 ft 428 kts 267°
2026-04-30 14:19 22.27073 114.94601 23060 ft 423 kts 267°
2026-04-30 14:19 22.26969 114.91443 22498 ft 419 kts 267°
2026-04-30 14:19 22.26862 114.88357 21963 ft 414 kts 267°
2026-04-30 14:20 22.26753 114.85259 21535 ft 408 kts 267°
2026-04-30 14:20 22.26646 114.82246 21435 ft 392 kts 266°
2026-04-30 14:20 22.25034 114.76911 21027 ft 370 kts 238°
2026-04-30 14:21 22.23421 114.74787 20763 ft 364 kts 227°
2026-04-30 14:21 22.21592 114.72909 20359 ft 362 kts 225°
2026-04-30 14:21 22.17957 114.69274 20009 ft 345 kts 225°
2026-04-30 14:22 22.16228 114.67532 19924 ft 334 kts 226°
2026-04-30 14:22 22.12986 114.64232 18443 ft 321 kts 226°
2026-04-30 14:22 22.11326 114.62525 16651 ft 340 kts 226°
2026-04-30 14:23 22.07710 114.58810 13016 ft 371 kts 226°
2026-04-30 14:23 22.04024 114.55039 10315 ft 362 kts 226°
2026-04-30 14:24 22.01267 114.50785 8037 ft 335 kts 253°
2026-04-30 14:24 22.00548 114.48578 8124 ft 293 kts 249°
2026-04-30 14:25 21.99039 114.44684 8031 ft 273 kts 248°
2026-04-30 14:25 21.97584 114.40953 7343 ft 269 kts 248°
2026-04-30 14:26 21.96155 114.37248 6812 ft 260 kts 248°
2026-04-30 14:26 21.95473 114.35474 6865 ft 262 kts 248°
2026-04-30 14:26 21.94032 114.31724 6911 ft 274 kts 248°
2026-04-30 14:27 21.93302 114.29822 6902 ft 273 kts 248°
2026-04-30 14:27 21.92580 114.27941 6900 ft 271 kts 248°
2026-04-30 14:27 21.91862 114.26071 6896 ft 270 kts 248°
2026-04-30 14:28 21.90421 114.22323 6744 ft 273 kts 248°
2026-04-30 14:28 21.89765 114.20449 6588 ft 268 kts 258°
2026-04-30 14:28 21.89795 114.18462 6473 ft 269 kts 283°
2026-04-30 14:28 21.90522 114.16596 6336 ft 272 kts 297°
2026-04-30 14:29 21.92398 114.13003 6060 ft 277 kts 298°
2026-04-30 14:29 21.93956 114.10034 5818 ft 270 kts 298°
2026-04-30 14:30 21.96980 114.04223 5375 ft 269 kts 299°
2026-04-30 14:31 21.98809 114.00688 5114 ft 270 kts 300°
2026-04-30 14:31 22.00624 113.97173 4820 ft 267 kts 300°
2026-04-30 14:31 22.01525 113.95427 4676 ft 266 kts 300°
2026-04-30 14:32 22.03310 113.91964 4407 ft 263 kts 300°
2026-04-30 14:32 22.04199 113.90239 4267 ft 264 kts 300°
2026-04-30 14:32 22.05095 113.88499 4149 ft 267 kts 301°
2026-04-30 14:33 22.05988 113.86764 4016 ft 269 kts 300°
2026-04-30 14:33 22.07801 113.83239 3736 ft 268 kts 300°
2026-04-30 14:33 22.08702 113.81487 3603 ft 267 kts 300°
2026-04-30 14:34 22.09601 113.79737 3470 ft 267 kts 300°
2026-04-30 14:34 22.10542 113.78035 3315 ft 259 kts 311°
2026-04-30 14:34 22.11929 113.76946 3167 ft 237 kts 339°
2026-04-30 14:34 22.13390 113.76258 3054 ft 223 kts 337°
2026-04-30 14:35 22.15586 113.75146 2907 ft 197 kts 337°
2026-04-30 14:35 22.17193 113.74340 2752 ft 190 kts 337°
2026-04-30 14:35 22.18400 113.73739 2693 ft 192 kts 337°
2026-04-30 14:36 22.19614 113.73133 2593 ft 192 kts 337°
2026-04-30 14:36 22.20820 113.72531 2483 ft 190 kts 338°
2026-04-30 14:36 22.22008 113.71936 2385 ft 188 kts 337°
2026-04-30 14:36 22.23235 113.71560 2261 ft 182 kts
2026-04-30 14:37 22.24329 113.72144 2267 ft 180 kts 43°
2026-04-30 14:37 22.25288 113.73057 2152 ft 185 kts 40°
2026-04-30 14:37 22.26271 113.73949 2027 ft 182 kts 41°
2026-04-30 14:37 22.27228 113.74826 1928 ft 179 kts 40°
2026-04-30 14:38 22.28117 113.75755 1814 ft 178 kts 61°
2026-04-30 14:38 22.28527 113.77006 1767 ft 179 kts 72°
2026-04-30 14:38 22.28943 113.78285 1707 ft 181 kts 70°
2026-04-30 14:38 22.29361 113.79554 1597 ft 175 kts 71°
2026-04-30 14:39 22.29753 113.80764 1439 ft 165 kts 71°
2026-04-30 14:39 22.30115 113.81887 1231 ft 152 kts 72°
2026-04-30 14:39 22.30455 113.82939 1051 ft 148 kts 72°
2026-04-30 14:40 22.31135 113.85047 674 ft 149 kts 71°
2026-04-30 14:40 22.31474 113.86098 480 ft 148 kts 71°
2026-04-30 14:40 22.31806 113.87125 273 ft 142 kts 72°
2026-04-30 14:40 22.32129 113.88139 104 ft 144 kts 70°
2026-04-30 14:41 22.32453 113.89132 41 ft 128 kts 70°
2026-04-30 14:41 22.32689 113.89859 40 ft 76 kts 70°
2026-04-30 14:41 22.32800 113.90207 40 ft 22 kts 71°
2026-04-30 14:41 22.32825 113.90388 40 ft 24 kts 92°
2026-04-30 14:42 22.32801 113.90562 40 ft 24 kts 100°
2026-04-30 14:42 22.32790 113.90734 40 ft 24 kts 73°
2026-04-30 14:42 22.32844 113.90901 40 ft 23 kts 71°
2026-04-30 14:42 22.32897 113.91067 40 ft 23 kts 71°
2026-04-30 14:43 22.32951 113.91234 40 ft 23 kts 71°
2026-04-30 14:43 22.33005 113.91400 40 ft 23 kts 71°
2026-04-30 14:43 22.33059 113.91567 40 ft 23 kts 71°
2026-04-30 14:43 22.33112 113.91734 40 ft 23 kts 71°
2026-04-30 14:44 22.33166 113.91900 40 ft 23 kts 71°
2026-04-30 14:44 22.33202 113.92011 40 ft 23 kts 71°
2026-04-30 14:44 22.33124 113.92136 40 ft 18 kts 162°
2026-04-30 14:44 22.33044 113.92165 40 ft 18 kts 161°
2026-04-30 14:45 22.32926 113.92211 40 ft 18 kts 159°
2026-04-30 14:45 22.32807 113.92255 40 ft 18 kts 161°
2026-04-30 14:45 22.32689 113.92300 40 ft 18 kts 160°
2026-04-30 14:45 22.32570 113.92345 40 ft 18 kts 161°
2026-04-30 14:46 22.32412 113.92404 40 ft 18 kts 161°
2026-04-30 14:46 22.32332 113.92435 40 ft 18 kts 161°
2026-04-30 14:46 22.32245 113.92492 40 ft 15 kts 109°
2026-04-30 14:46 22.32272 113.92599 39 ft 15 kts 71°
2026-04-30 14:47 22.32213 113.92674 40 ft 15 kts 161°
2026-04-30 14:47 22.32113 113.92711 40 ft 15 kts 160°
2026-04-30 14:47 22.32014 113.92749 40 ft 15 kts 161°
2026-04-30 14:47 22.31914 113.92787 40 ft 15 kts 162°
2026-04-30 14:48 22.31852 113.92711 40 ft 15 kts 250°
2026-04-30 14:48 22.31816 113.92602 40 ft 15 kts 252°
2026-04-30 14:48 22.31782 113.92494 40 ft 15 kts 251°
2026-04-30 14:48 22.31747 113.92385 40 ft 15 kts 251°
2026-04-30 14:49 22.31711 113.92274 40 ft 17 kts 250°
2026-04-30 14:49 22.31669 113.92145 40 ft 19 kts 251°
2026-04-30 14:49 22.31623 113.92002 40 ft 20 kts 251°
2026-04-30 14:49 22.31576 113.91858 40 ft 20 kts 251°
2026-04-30 14:50 22.31483 113.91569 40 ft 20 kts 251°
2026-04-30 14:50 22.31434 113.91443 40 ft 17 kts 222°
2026-04-30 14:51 22.31213 113.91493 40 ft 17 kts 160°
2026-04-30 14:51 22.31103 113.91535 40 ft 17 kts 161°
2026-04-30 14:51 22.30883 113.91617 40 ft 17 kts 161°
2026-04-30 14:52 22.30773 113.91659 40 ft 17 kts 161°
2026-04-30 14:52 22.30552 113.91742 40 ft 17 kts 160°
2026-04-30 14:52 22.30443 113.91750 40 ft 17 kts 221°
2026-04-30 14:53 22.30359 113.91515 40 ft 17 kts 242°
2026-04-30 14:53 22.30252 113.91512 40 ft 17 kts 160°
2026-04-30 14:54 22.30042 113.91614 40 ft 17 kts 117°
2026-04-30 14:54 22.29878 113.91761 40 ft 17 kts 151°
2026-04-30 14:55 22.29774 113.91817 40 ft 6 kts 160°
2026-04-30 14:55 22.29743 113.91805 40 ft 5 kts 233°
2026-04-30 14:55 22.29724 113.91740 40 ft 2 kts 251°
2026-04-30 14:56 22.29722 113.91733 40 ft 0 kts 251°